TimeMDT,TemperatureF,Dew PointF,Humidity,Sea Level PressureIn,VisibilityMPH,Wind Direction,Wind SpeedMPH,Gust SpeedMPH,PrecipitationIn,Events,Conditions,WindDirDegrees,DateUTC
12:53 AM,19.0,15.1,85,30.40,10.0,ESE,3.5,-,N/A,,Clear,120,2013-03-20 06:53:00
1:53 AM,15.1,10.9,84,30.40,10.0,Calm,Calm,-,N/A,,Clear,0,2013-03-20 07:53:00
2:53 AM,12.9,10.0,88,30.38,10.0,ENE,8.1,-,N/A,,Clear,70,2013-03-20 08:53:00
3:53 AM,12.9,10.9,92,30.34,10.0,ESE,5.8,-,N/A,,Clear,120,2013-03-20 09:53:00
4:53 AM,12.0,9.0,88,30.33,10.0,East,8.1,-,N/A,,Clear,90,2013-03-20 10:53:00
5:53 AM,10.9,8.1,88,30.32,10.0,East,10.4,-,N/A,,Clear,80,2013-03-20 11:53:00
6:53 AM,12.9,10.0,88,30.30,10.0,East,10.4,-,N/A,,Clear,100,2013-03-20 12:53:00
7:53 AM,17.1,14.0,88,30.27,10.0,ESE,9.2,-,N/A,,Clear,120,2013-03-20 13:53:00
8:53 AM,25.0,19.0,78,30.22,10.0,SE,9.2,-,N/A,,Clear,130,2013-03-20 14:53:00
9:53 AM,32.0,19.9,61,30.16,10.0,SE,10.4,-,N/A,,Clear,140,2013-03-20 15:53:00
10:53 AM,39.9,21.0,47,30.10,10.0,ESE,10.4,16.1,N/A,,Clear,110,2013-03-20 16:53:00
11:53 AM,46.9,18.0,32,30.04,10.0,SE,13.8,19.6,N/A,,Clear,130,2013-03-20 17:53:00
12:53 PM,52.0,14.0,22,29.97,10.0,SSE,15.0,24.2,N/A,,Clear,150,2013-03-20 18:53:00
1:53 PM,54.0,12.0,19,29.92,10.0,South,17.3,23.0,N/A,,Clear,180,2013-03-20 19:53:00
2:53 PM,55.9,14.0,19,29.88,10.0,South,17.3,23.0,N/A,,Partly Cloudy,180,2013-03-20 20:53:00
3:53 PM,57.0,14.0,18,29.84,10.0,SSE,15.0,-,N/A,,Scattered Clouds,160,2013-03-20 21:53:00
4:53 PM,57.9,14.0,18,29.82,10.0,SSE,8.1,-,N/A,,Scattered Clouds,150,2013-03-20 22:53:00
5:17 PM,55.4,24.8,31,29.77,6.0,West,27.6,39.1,N/A,,Haze,260,2013-03-20 23:17:00
5:24 PM,53.6,28.4,38,29.77,8.0,West,28.8,43.7,N/A,,Overcast,260,2013-03-20 23:24:00
5:53 PM,50.0,33.1,52,29.85,10.0,WNW,23.0,28.8,0.00,Rain,Light Rain,290,2013-03-20 23:53:00
6:53 PM,48.0,37.0,66,29.82,10.0,SSW,8.1,-,0.01,Rain,Light Rain,200,2013-03-21 00:53:00
7:53 PM,46.0,37.0,71,29.79,10.0,SSE,3.5,-,0.00,,Overcast,160,2013-03-21 01:53:00
8:53 PM,44.1,37.0,76,29.76,10.0,East,6.9,-,N/A,,Mostly Cloudy,100,2013-03-21 02:53:00
9:53 PM,46.0,32.0,58,29.73,10.0,SW,8.1,-,N/A,,Clear,230,2013-03-21 03:53:00
10:53 PM,45.0,28.9,53,29.68,10.0,SW,10.4,-,N/A,,Clear,230,2013-03-21 04:53:00